SL-8 DEB *

Satellite information

Favourite Embed

Satellite Type and Status

DEBRISIN ORBIT

Key statistics

Satellite SL-8 DEB * at a glance.

Uptime

18278

Days in orbit

Revolutions

≈ 14.7

Per day

Orbit

LEO

Low Earth Orbit

Inclination

74.1

Latest

Satellite identification and parameters

Extended collection of information and parameters for SL-8 DEB *.

Object identification

Identified? True

Debris? True

Object name: SL-8 DEB *

International designator: 1975-112D

Object number (NORAD): 14801

Object ID (CCSDS): 14801

Country: COMMONWEALTH OF INDEPENDENT STATES (CIS)

Current information (Y/N): Y

RCS size: SMALL

Orbital parameters

Period: 98.201 minutes

Inclination: 74.0583 deg

SMA: 7050.778 km

Apoapsis: 677.37 km

Periapsis: 667.916 km

RAAN: 111.1099 deg

Eccentricy: 0.00067037

Argument of periapsis: 10.958 deg

Mean anomaly: 52.3306 deg

Mean motion: 14.66382273 rev/day

Mean motion (dot): 0.00005477 rev/day2

B* drag term: 0.00099544184 1/REarth

Two-line elements (TLE)

Creation date: Dec. 12, 2025, 10:14 a.m.

Reference frame: TEME

Reference center: EARTH

Epoch: Dec. 12, 2025, 3:44 a.m. UTC

TLE line 0: 0 SL-8 DEB *

TLE line 1: 1 14801U 75112D 25346.15574899 .00005477 00000-0 99544-3 0 9995

TLE line 2: 2 14801 74.0583 111.1099 0006704 10.9580 52.3306 14.66382273460871

Live tracking on map

Real-time ground track for satellite SL-8 DEB *.

In-orbit conjunctions

A list of the most updated potential collisions computed for object SL-8 DEB *.

Target Orbit TCA Probability of collision Miss distance Type
CZ-2D R/B SSO 2024-08-07 09:29:09 0.0001644103 529.0 (m) ROCKET BODY

Associated space launch

Military communications satellite

SL-8 DEB * was lifted into orbit during the mission ‘Kosmos-3M | Strela-2M 11’, on board a Kosmos-3M space rocket.

The launch took place on Nov. 28, 1975, 12:10 a.m. from 132/1 (132L).

For more information about the launch, click the button.

Launch to space Kosmos-3M | Strela-2M 11
Kosmos-3M | Strela-2M 11

Agency: N/A

Status: Launch Successful

Launch date: Nov. 28, 1975, 12:10 a.m. UTC

Rocket: Kosmos-3M

Launch pad: 132/1 (132L)

Location: Plesetsk Cosmodrome, Russian Federation

...

Latest news about this satellite

There are no fresh news available about this satellite. Check back as we update our databases every day.


Newsletter sign-up

Weekly statistics, charts and insights to help you stay on top of the space industry.